Year,Month,Day,Hour,Minute,Value (Times are PST for temperature in C)
2017,09,27,10,08,17.40
2017,09,27,10,09,17.40
2017,09,27,10,10,17.40
2017,09,27,10,11,17.40
2017,09,27,10,12,17.50
2017,09,27,10,13,17.50
2017,09,27,10,14,17.60
2017,09,27,10,15,17.60
2017,09,27,10,16,17.60
2017,09,27,10,17,17.60
2017,09,27,10,18,17.60
2017,09,27,10,19,17.60
2017,09,27,10,20,17.70
2017,09,27,10,21,17.70
2017,09,27,10,22,17.70
2017,09,27,10,23,17.70
2017,09,27,10,24,17.80
2017,09,27,10,25,17.80
2017,09,27,10,26,17.80
2017,09,27,10,27,17.80
2017,09,27,10,28,17.80
2017,09,27,10,29,17.80
2017,09,27,10,30,17.90
2017,09,27,10,31,17.90
2017,09,27,10,32,17.90
2017,09,27,10,33,17.90
2017,09,27,10,34,17.90
2017,09,27,10,35,18.00
2017,09,27,10,36,18.10
2017,09,27,10,37,18.10
2017,09,27,10,38,18.10
2017,09,27,10,39,18.20
2017,09,27,10,40,18.20
2017,09,27,10,41,18.20
2017,09,27,10,42,18.20
2017,09,27,10,43,18.20
2017,09,27,10,44,18.20
2017,09,27,10,45,18.30
2017,09,27,10,46,18.30
2017,09,27,10,47,18.30
2017,09,27,10,48,18.30
2017,09,27,10,49,18.30
2017,09,27,10,50,18.40
2017,09,27,10,51,18.40
2017,09,27,10,52,18.40
2017,09,27,10,53,18.40
2017,09,27,10,54,18.40
2017,09,27,10,55,18.40
2017,09,27,10,56,18.40
2017,09,27,10,57,18.40
2017,09,27,10,58,18.40
2017,09,27,10,59,18.50
2017,09,27,11,00,18.50
2017,09,27,11,01,18.50
2017,09,27,11,02,18.60
2017,09,27,11,03,18.60
2017,09,27,11,04,18.60
2017,09,27,11,05,18.60
2017,09,27,11,06,18.60
2017,09,27,11,07,18.60
2017,09,27,11,08,18.60
2017,09,27,11,09,18.70
2017,09,27,11,10,18.70
2017,09,27,11,11,18.70
2017,09,27,11,12,18.70
2017,09,27,11,13,18.80
2017,09,27,11,14,18.80
2017,09,27,11,15,18.90
2017,09,27,11,16,18.90
2017,09,27,11,17,18.90
2017,09,27,11,18,18.90
2017,09,27,11,19,19.00
2017,09,27,11,20,19.10
2017,09,27,11,21,19.20
2017,09,27,11,22,19.30
2017,09,27,11,23,19.30
2017,09,27,11,24,19.30
2017,09,27,11,25,19.20
2017,09,27,11,26,19.30
2017,09,27,11,27,19.20
2017,09,27,11,28,19.20
2017,09,27,11,29,19.30
2017,09,27,11,30,19.30
2017,09,27,11,31,19.30
2017,09,27,11,32,19.30
2017,09,27,11,33,19.30
2017,09,27,11,34,19.30
2017,09,27,11,35,19.30
2017,09,27,11,36,19.30
2017,09,27,11,37,19.30
2017,09,27,11,38,19.30
2017,09,27,11,39,19.40
2017,09,27,11,40,19.40
2017,09,27,11,41,19.40
2017,09,27,11,42,19.40
2017,09,27,11,43,19.40
2017,09,27,11,44,19.40
2017,09,27,11,45,19.40
2017,09,27,11,46,19.40
2017,09,27,11,47,19.50
2017,09,27,11,48,19.50
2017,09,27,11,49,19.50
2017,09,27,11,50,19.50
2017,09,27,11,51,19.40
2017,09,27,11,52,19.40
2017,09,27,11,53,19.30
2017,09,27,11,54,19.30
2017,09,27,11,55,19.30
2017,09,27,11,56,19.30
2017,09,27,11,57,19.40
2017,09,27,11,58,19.40
2017,09,27,11,59,19.40
2017,09,27,12,00,19.40
2017,09,27,12,01,19.40
2017,09,27,12,02,19.50
2017,09,27,12,03,19.60
2017,09,27,12,04,19.60
2017,09,27,12,05,19.60
2017,09,27,12,06,19.60
2017,09,27,12,07,19.60
2017,09,27,12,08,19.70
2017,09,27,12,09,19.70
2017,09,27,12,10,19.70
2017,09,27,12,11,19.70
2017,09,27,12,12,19.70
2017,09,27,12,13,19.70
2017,09,27,12,14,19.70
2017,09,27,12,15,19.70
2017,09,27,12,16,19.70
2017,09,27,12,17,19.60
2017,09,27,12,18,19.60
2017,09,27,12,19,19.60
2017,09,27,12,20,19.60
2017,09,27,12,21,19.60
2017,09,27,12,22,19.60
2017,09,27,12,23,19.50
2017,09,27,12,24,19.50
2017,09,27,12,25,19.50
2017,09,27,12,26,19.60
2017,09,27,12,27,19.60
2017,09,27,12,28,19.70
2017,09,27,12,29,19.70
2017,09,27,12,30,19.60
2017,09,27,12,31,19.60
2017,09,27,12,32,19.60
2017,09,27,12,33,19.60
2017,09,27,12,34,19.70
2017,09,27,12,35,19.70
2017,09,27,12,36,19.70
2017,09,27,12,37,19.70
2017,09,27,12,38,19.70
2017,09,27,12,39,19.70
2017,09,27,12,40,19.60
2017,09,27,12,41,19.60
2017,09,27,12,42,19.60
2017,09,27,12,43,19.60
2017,09,27,12,44,19.60
2017,09,27,12,45,19.50
2017,09,27,12,46,19.50
2017,09,27,12,47,19.60
2017,09,27,12,48,19.60
2017,09,27,12,49,19.60
2017,09,27,12,50,19.70
2017,09,27,12,51,19.70
2017,09,27,12,52,19.80
2017,09,27,12,53,19.90
2017,09,27,12,54,19.90
2017,09,27,12,55,19.90
2017,09,27,12,56,19.90
2017,09,27,12,57,19.90
2017,09,27,12,58,19.90
2017,09,27,12,59,20.00
2017,09,27,13,00,20.10
2017,09,27,13,01,20.10
2017,09,27,13,02,20.10
2017,09,27,13,03,20.10
2017,09,27,13,04,20.20
2017,09,27,13,05,20.20
2017,09,27,13,06,20.20
2017,09,27,13,07,20.20
2017,09,27,13,08,20.20
2017,09,27,13,09,20.20
2017,09,27,13,10,20.20
2017,09,27,13,11,20.20
2017,09,27,13,12,20.10
2017,09,27,13,13,20.10
2017,09,27,13,14,20.10
2017,09,27,13,15,20.00
2017,09,27,13,16,19.90
2017,09,27,13,17,19.90
2017,09,27,13,18,19.90
2017,09,27,13,19,19.90
2017,09,27,13,20,19.90
2017,09,27,13,21,19.90
2017,09,27,13,22,19.90
2017,09,27,13,23,19.90
2017,09,27,13,24,19.90
2017,09,27,13,25,19.90
2017,09,27,13,26,19.90
2017,09,27,13,27,19.90
2017,09,27,13,28,20.00
2017,09,27,13,29,20.10
2017,09,27,13,30,20.10
2017,09,27,13,31,20.20
2017,09,27,13,32,20.20
2017,09,27,13,33,20.30
2017,09,27,13,34,20.40
2017,09,27,13,35,20.40
2017,09,27,13,36,20.50
2017,09,27,13,37,20.50
2017,09,27,13,38,20.50
2017,09,27,13,39,20.50
2017,09,27,13,40,20.50
2017,09,27,13,41,20.50
2017,09,27,13,42,20.40
2017,09,27,13,43,20.40
2017,09,27,13,44,20.40
2017,09,27,13,45,20.50
2017,09,27,13,46,20.60
2017,09,27,13,47,20.60
2017,09,27,13,48,20.70
2017,09,27,13,49,20.70
2017,09,27,13,50,20.70
2017,09,27,13,51,20.70
2017,09,27,13,52,20.70
2017,09,27,13,53,20.70
2017,09,27,13,54,20.80
2017,09,27,13,55,20.80
2017,09,27,13,56,20.80
2017,09,27,13,57,20.80
2017,09,27,13,58,20.80
2017,09,27,13,59,20.80
2017,09,27,14,00,20.80
2017,09,27,14,01,20.80
2017,09,27,14,02,20.80
2017,09,27,14,03,20.80
2017,09,27,14,04,20.70
2017,09,27,14,05,20.70
2017,09,27,14,06,20.70
2017,09,27,14,07,20.60
2017,09,27,14,08,20.60
2017,09,27,14,09,20.60
2017,09,27,14,10,20.60
2017,09,27,14,11,20.60
2017,09,27,14,12,20.60
2017,09,27,14,13,20.60
2017,09,27,14,14,20.60
2017,09,27,14,15,20.60
2017,09,27,14,16,20.60
2017,09,27,14,17,20.70
2017,09,27,14,18,20.70
2017,09,27,14,19,20.70
2017,09,27,14,20,20.80
2017,09,27,14,21,20.90
2017,09,27,14,22,20.90
2017,09,27,14,23,21.00
2017,09,27,14,24,21.00
2017,09,27,14,25,21.10
2017,09,27,14,26,21.10
2017,09,27,14,27,21.10
2017,09,27,14,28,21.20
2017,09,27,14,29,21.20
2017,09,27,14,30,21.20
2017,09,27,14,31,21.30
2017,09,27,14,32,21.30
2017,09,27,14,33,21.30
2017,09,27,14,34,21.30
2017,09,27,14,35,21.30
2017,09,27,14,36,21.30
2017,09,27,14,37,21.20
2017,09,27,14,38,21.20
2017,09,27,14,39,21.10
2017,09,27,14,40,21.10
2017,09,27,14,41,21.10
2017,09,27,14,42,21.10
2017,09,27,14,43,21.00
2017,09,27,14,44,21.00
2017,09,27,14,45,20.90
2017,09,27,14,46,20.90
2017,09,27,14,47,20.90
2017,09,27,14,48,20.90
2017,09,27,14,49,20.90
2017,09,27,14,50,20.90
2017,09,27,14,51,21.00
2017,09,27,14,52,21.00
2017,09,27,14,53,21.10
2017,09,27,14,54,21.20
2017,09,27,14,55,21.20
2017,09,27,14,56,21.30
2017,09,27,14,57,21.30
2017,09,27,14,58,21.40
2017,09,27,14,59,21.50
2017,09,27,15,00,21.60
2017,09,27,15,01,21.50
2017,09,27,15,02,21.60
2017,09,27,15,03,21.60
2017,09,27,15,04,21.60
2017,09,27,15,05,21.60
2017,09,27,15,06,21.60
2017,09,27,15,07,21.60
2017,09,27,15,08,21.60
2017,09,27,15,09,21.60
2017,09,27,15,10,21.60
2017,09,27,15,11,21.60
2017,09,27,15,12,21.60
2017,09,27,15,13,21.60
2017,09,27,15,14,21.60
2017,09,27,15,15,21.60
2017,09,27,15,16,21.60
2017,09,27,15,17,21.70
2017,09,27,15,18,21.70
2017,09,27,15,19,21.80
2017,09,27,15,20,21.80
2017,09,27,15,21,21.80
2017,09,27,15,22,21.80
2017,09,27,15,23,21.70
2017,09,27,15,24,21.70
2017,09,27,15,25,21.70
2017,09,27,15,26,21.80
2017,09,27,15,27,21.80
2017,09,27,15,28,21.80
2017,09,27,15,29,21.80
2017,09,27,15,30,21.70
2017,09,27,15,31,21.70
2017,09,27,15,32,21.70
2017,09,27,15,33,21.70
2017,09,27,15,34,21.70
2017,09,27,15,35,21.80
2017,09,27,15,36,21.80
2017,09,27,15,37,21.80
2017,09,27,15,38,21.80
2017,09,27,15,39,21.80
2017,09,27,15,40,21.80
2017,09,27,15,41,21.90
2017,09,27,15,42,21.90
2017,09,27,15,43,21.90
2017,09,27,15,44,21.90
2017,09,27,15,45,22.00
2017,09,27,15,46,22.00
2017,09,27,15,47,22.10
2017,09,27,15,48,22.10
2017,09,27,15,49,22.10
2017,09,27,15,50,22.10
2017,09,27,15,51,22.10
2017,09,27,15,52,22.10
2017,09,27,15,53,22.10
2017,09,27,15,54,22.10
2017,09,27,15,55,22.10
2017,09,27,15,56,22.10
2017,09,27,15,57,22.10
2017,09,27,15,58,22.10
2017,09,27,15,59,22.10
2017,09,27,16,00,22.10
2017,09,27,16,01,22.20
2017,09,27,16,02,22.30
2017,09,27,16,03,22.30
2017,09,27,16,04,22.40
2017,09,27,16,05,22.50
2017,09,27,16,06,22.60
2017,09,27,16,07,22.70
2017,09,27,16,08,22.70
2017,09,27,16,09,22.80
2017,09,27,16,10,22.70
2017,09,27,16,11,22.70
2017,09,27,16,12,22.70
2017,09,27,16,13,22.70
2017,09,27,16,14,22.60
2017,09,27,16,15,22.60
2017,09,27,16,16,22.60
2017,09,27,16,17,22.60
2017,09,27,16,18,22.60
2017,09,27,16,19,22.50
2017,09,27,16,20,22.50
2017,09,27,16,21,22.50
2017,09,27,16,22,22.50
2017,09,27,16,23,22.50
2017,09,27,16,24,22.50
2017,09,27,16,25,22.50
2017,09,27,16,26,22.40
2017,09,27,16,27,22.50
2017,09,27,16,28,22.50
2017,09,27,16,29,22.50
2017,09,27,16,30,22.50
2017,09,27,16,31,22.50
2017,09,27,16,32,22.50
2017,09,27,16,33,22.50
2017,09,27,16,34,22.50
2017,09,27,16,35,22.40
2017,09,27,16,36,22.40
2017,09,27,16,37,22.40
2017,09,27,16,38,22.40
2017,09,27,16,39,22.50
2017,09,27,16,40,22.50
2017,09,27,16,41,22.50
2017,09,27,16,42,22.50
2017,09,27,16,43,22.40
2017,09,27,16,44,22.40
2017,09,27,16,45,22.40
2017,09,27,16,46,22.40
2017,09,27,16,47,22.30
2017,09,27,16,48,22.30
2017,09,27,16,49,22.30
2017,09,27,16,50,22.30
2017,09,27,16,51,22.20
2017,09,27,16,52,22.20
2017,09,27,16,53,22.20
2017,09,27,16,54,22.20
2017,09,27,16,55,22.20
2017,09,27,16,56,22.20
2017,09,27,16,57,22.20
2017,09,27,16,58,22.10
2017,09,27,16,59,22.10
2017,09,27,17,00,22.00
2017,09,27,17,01,22.00
2017,09,27,17,02,22.00
2017,09,27,17,03,22.00
2017,09,27,17,04,22.00
2017,09,27,17,05,22.00
2017,09,27,17,06,22.00
2017,09,27,17,07,22.00
2017,09,27,17,08,22.00
2017,09,27,17,09,22.10
2017,09,27,17,10,22.00
2017,09,27,17,11,22.00
2017,09,27,17,12,22.00
2017,09,27,17,13,22.00
2017,09,27,17,14,22.00
2017,09,27,17,15,22.00
2017,09,27,17,16,22.00
2017,09,27,17,17,21.90
2017,09,27,17,18,21.90
2017,09,27,17,19,21.90
2017,09,27,17,20,21.90
2017,09,27,17,21,21.90
2017,09,27,17,22,21.90
2017,09,27,17,23,21.90
2017,09,27,17,24,21.90
2017,09,27,17,25,21.90
2017,09,27,17,26,21.90
2017,09,27,17,27,21.90
2017,09,27,17,28,21.90
2017,09,27,17,29,21.90
2017,09,27,17,30,22.00
2017,09,27,17,31,22.00
2017,09,27,17,32,22.00
2017,09,27,17,33,22.00
2017,09,27,17,34,22.00
2017,09,27,17,35,22.00
2017,09,27,17,36,22.00
2017,09,27,17,37,22.00
2017,09,27,17,38,22.00
2017,09,27,17,39,22.00
2017,09,27,17,40,22.00
2017,09,27,17,41,22.00
2017,09,27,17,42,22.00
2017,09,27,17,43,22.00
2017,09,27,17,44,22.10
2017,09,27,17,45,22.10
2017,09,27,17,46,22.10
2017,09,27,17,47,22.10
2017,09,27,17,48,22.10
2017,09,27,17,49,22.10
2017,09,27,17,50,22.00
2017,09,27,17,51,22.00
2017,09,27,17,52,22.00
2017,09,27,17,53,22.00
2017,09,27,17,54,22.00
2017,09,27,17,55,22.00
2017,09,27,17,56,22.00
2017,09,27,17,57,22.00
2017,09,27,17,58,22.00
2017,09,27,17,59,22.00
2017,09,27,18,00,22.00
2017,09,27,18,01,22.00
2017,09,27,18,02,22.00
2017,09,27,18,03,22.00
2017,09,27,18,04,21.90
2017,09,27,18,05,21.90
2017,09,27,18,06,21.90
2017,09,27,18,07,21.90
2017,09,27,18,08,21.90
2017,09,27,18,09,21.90
2017,09,27,18,10,21.80
2017,09,27,18,11,21.80
2017,09,27,18,12,21.80
2017,09,27,18,13,21.80
2017,09,27,18,14,21.70
2017,09,27,18,15,21.70
2017,09,27,18,16,21.70
2017,09,27,18,17,21.70
2017,09,27,18,18,21.60
2017,09,27,18,19,21.60
2017,09,27,18,20,21.60
2017,09,27,18,21,21.60
2017,09,27,18,22,21.60
2017,09,27,18,23,21.50
2017,09,27,18,24,21.40
2017,09,27,18,25,21.30
2017,09,27,18,26,21.30
2017,09,27,18,27,21.30
2017,09,27,18,28,21.30
2017,09,27,18,29,21.20
2017,09,27,18,30,21.20
2017,09,27,18,31,21.20
2017,09,27,18,32,21.10
2017,09,27,18,33,21.10
2017,09,27,18,34,21.10
2017,09,27,18,35,21.00
2017,09,27,18,36,21.00
2017,09,27,18,37,21.00
2017,09,27,18,38,20.90
2017,09,27,18,39,20.90
2017,09,27,18,40,20.80
2017,09,27,18,41,20.80
2017,09,27,18,42,20.70
2017,09,27,18,43,20.70
2017,09,27,18,44,20.70
2017,09,27,18,45,20.60
2017,09,27,18,46,20.60
2017,09,27,18,47,20.50
2017,09,27,18,48,20.50
2017,09,27,18,49,20.50
2017,09,27,18,50,20.40
2017,09,27,18,51,20.40
2017,09,27,18,52,20.40
2017,09,27,18,53,20.30
2017,09,27,18,54,20.30
2017,09,27,18,55,20.30
2017,09,27,18,56,20.30
2017,09,27,18,57,20.30
2017,09,27,18,58,20.30
2017,09,27,18,59,20.30
2017,09,27,19,00,20.30
2017,09,27,19,01,20.30
2017,09,27,19,02,20.30
2017,09,27,19,03,20.30
2017,09,27,19,04,20.30
2017,09,27,19,05,19.80
2017,09,27,19,06,19.40
2017,09,27,19,07,19.40
2017,09,27,19,08,19.40
2017,09,27,19,09,19.40
2017,09,27,19,10,19.40
2017,09,27,19,11,19.40
2017,09,27,19,12,19.40
2017,09,27,19,13,19.40
2017,09,27,19,14,19.40
2017,09,27,19,15,19.40
2017,09,27,19,16,19.40
2017,09,27,19,17,19.40
